EHI
0 0 0 0 0 0 0 0 0 0 0 0 0 0 0 0 0 0 0 0 0 0 0 0 0 0 0 0 0 0 0 0 0 0 0 0 0 0 0 0 0 0 0
0 0 0 0 0 0 0 0 0 0 0 0 0 0 0 0 0 0 0 0 0 0 0 0 0 0 0 0 0 0 0 0 0 0 0 0 0 0 0 0 0 0 0
0 0 0 0 0 0 0 0 0 0 0 0 0 0 0 0 0 0 0 0 0 0 0 0 0 0 0 0 0 0 0 0 0 0 0 0 0 0 0 0 0 0 0
0 0 0 0 0 0 0 0 0 0 0 0 0 0 0 0 0 0 0 0 0 0 0 0 0 0 0 0 0 0 0 0 0 0 0 0 0 0 0 0 0 0 0
0 0 0 0 0 0 0 0 0 0 0 0 0 0 0 0 0 0 0 0 0 0 0 0 0 0 0 0 0 0 0 0 0 0 0 0 0 0 0 0 0 0 0
0 0 0 0 0 0 0 0 0 0 0 0 0 0 0 0 0 0 0 0 0 0 0 0 0 0 0 0 0 0 0 0 0 0 0 0 0 0 0 0 0 0 0
0 0 0 0 0 0 0 0 0 0 0 0 0 0 0 0 0 0 0 0 0 0 0 0 0 0 0 0 0 0 0 0 0 0 0 0 0 0 0 0 0 0 0
0 0 0 0 0 0 0 0 0 1 1 0 0 0 0 0 0 0 0 0 0 0 0 0 0 0 0 0 0 0 0 0 0 0 0 0 0 0 0 0 0 0 0
0 0 0 0 0 0 0 0 0 1 1 1 0 0 0 0 0 0 0 0 0 0 0 0 0 0 0 0 0 0 0 0 0 0 0 0 0 0 0 0 0 0 0
0 0 0 0 0 0 0 0 0 1 1 1 1 0 0 0 0 0 0 0 0 0 0 0 0 0 0 0 0 0 0 0 0 0 0 0 0 0 0 0 0 0 0
0 0 0 0 0 0 0 0 0 0 1 1 1 0 0 0 0 0 0 0 0 0 0 0 0 0 0 0 0 0 0 0 0 0 0 0 0 0 0 0 0 0 0
0 0 0 0 0 0 0 0 0 0 0 0 0 0 0 0 0 0 0 0 0 0 0 0 0 0 0 0 0 0 0 0 0 0 0 0 0 0 0 0 0 0 0
0 0 0 0 0 0 0 0 0 0 0 0 0 0 0 0 0 0 0 0 0 0 0 0 0 0 0 0 0 0 0 0 0 0 0 0 0 0 0 0 0 0 0
0 0 0 0 0 0 0 0 0 0 0 0 0 0 0 0 0 0 0 0 0 0 0 0 0 0 0 0 0 0 0 0 0 0 0 0 0 0 0 0 0 0 0
0 0 0 0 0 0 0 0 0 0 0 0 0 0 0 0 0 0 0 0 0 0 0 0 0 0 0 0 0 0 0 0 0 0 0 0 0 0 0 0 0 0 0
0 0 0 0 0 0 0 0 0 0 0 0 0 0 0 0 0 0 0 0 0 0 0 0 0 0 0 0 0 0 0 0 0 0 0 0 0 0 0 0 0 0 0
0 0 0 0 0 0 0 0 0 0 0 0 0 0 0 0 0 0 0 0 0 0 0 0 0 0 0 0 0 0 0 0 0 0 0 0 0 0 0 0 0 0 0
0 0 0 0 0 0 0 0 0 0 0 0 0 0 0 0 0 0 0 0 0 0 0 0 0 0 0 0 0 0 0 0 0 0 0 0 0 0 0 0 0 0 0
0 0 0 0 0 0 0 0 0 0 0 0 0 0 0 0 0 0 0 0 0 0 0 0 0 0 0 0 0 0 0 0 0 0 0 0 0 0 0 0 0 0 0
0 0 0 0 0 0 0 0 0 0 0 0 0 0 0 0 0 0 0 0 0 0 0 0 0 0 0 0 0 0 0 0 0 0 0 0 0 0 0 0 0 0 0
0 0 0 0 0 0 0 0 0 0 0 0 0 0 0 0 0 0 0 0 0 0 0 0 0 0 0 0 0 0 0 0 0 0 0 0 0 0 0 0 0 0 0
0 0 0 0 0 0 0 0 0 0 0 0 0 0 0 0 0 0 0 0 0 0 0 0 0 0 0 0 0 0 0 0 0 0 0 0 0 0 0 0 0 0 0
0 0 0 0 0 0 0 0 0 0 0 0 0 0 0 0 0 0 0 0 0 0 0 0 0 0 0 0 0 0 0 0 0 0 0 0 0 0 0 0 0 0 0
0 0 0 0 0 0 0 0 0 0 0 0 0 0 0 0 0 0 0 0 0 0 0 0 0 0 0 0 0 0 0 0 0 0 0 0 0 0 0 0 0 0 0
0 0 0 0 0 0 0 0 0 0 0 0 0 0 0 0 0 0 0 0 0 0 0 0 0 0 0 0 0 0 0 0 0 0 0 0 0 0 0 0 0 0 0
0 0 0 0 0 0 0 0 0 0 0 0 0 0 0 0 0 0 0 0 0 0 0 0 0 0 0 0 0 0 0 0 0 0 0 0 0 0 0 0 0 0 0
Wind_Speed
5 5 5 5 6 6 6 6 6 5 5 4 4 3 3 3 3 3 4 5 4 4 3 3 2 2 2 2 2 3 3 2 2 2 2 2 1 2 1 1 2 2 2
6 6 5 6 6 6 6 7 7 7 6 4 3 3 3 3 3 3 4 5 5 4 3 3 2 2 2 3 3 3 2 1 1 2 1 1 2 2 1 1 1 2 2
8 7 7 6 6 6 7 6 7 7 6 6 4 4 3 3 3 3 3 3 4 4 3 3 2 2 2 2 2 3 3 2 0 1 2 2 1 0 1 0 1 1 1
8 7 7 7 7 6 6 6 7 8 7 7 6 6 5 4 3 4 3 3 4 4 3 3 2 2 2 2 2 2 2 2 1 0 1 1 2 2 0 1 1 1 1
8 8 7 7 6 6 6 6 7 7 7 7 7 6 4 3 4 4 5 4 3 4 4 3 2 2 2 2 2 2 2 2 2 1 0 1 1 1 2 1 1 1 1
8 8 7 7 6 6 6 6 7 7 7 7 7 6 6 6 6 5 5 4 3 3 3 3 3 2 2 2 2 2 2 1 1 1 1 1 1 0 1 1 1 1 2
7 7 7 7 7 7 7 7 8 7 6 7 7 7 6 6 6 5 5 5 3 3 3 3 3 2 2 2 2 2 2 2 2 1 1 1 0 0 0 1 1 1 1
7 7 7 7 7 8 7 7 8 7 7 7 6 6 6 5 4 4 4 4 3 3 4 3 3 3 3 2 2 2 2 2 1 1 1 1 0 0 0 1 1 1 1
7 7 6 6 7 7 7 7 8 8 8 7 6 6 6 5 5 4 4 3 3 3 4 4 3 3 3 3 2 2 2 2 2 2 2 1 1 1 0 0 1 2 2
6 6 6 6 6 6 6 6 7 8 8 7 7 6 6 5 5 5 4 4 4 4 4 4 3 3 3 3 2 2 2 2 2 2 2 2 1 1 1 1 1 2 3
6 5 5 5 5 6 6 6 6 6 6 7 6 6 6 5 5 5 5 5 4 4 5 4 4 3 3 3 3 2 2 3 2 2 3 3 2 2 1 1 1 2 2
6 5 6 5 5 5 5 6 6 6 6 6 6 6 6 5 5 5 5 5 4 4 5 4 4 4 4 4 4 3 3 3 3 2 3 3 2 2 2 2 2 2 2
6 5 5 5 5 5 5 5 6 6 5 5 5 5 5 5 5 4 4 4 4 4 4 4 4 4 4 4 4 4 3 3 3 3 3 3 3 3 2 2 3 2 2
5 5 4 4 4 5 5 5 5 5 5 5 5 5 5 5 5 4 4 4 4 4 4 4 4 4 3 4 3 3 3 3 3 3 3 3 4 4 3 3 3 3 3
5 4 4 3 4 4 5 5 4 5 5 5 5 4 4 4 4 4 3 3 3 4 3 3 3 3 3 3 4 4 3 3 3 3 3 4 5 5 5 4 3 3 3
4 4 4 4 4 4 5 5 4 4 5 5 5 4 4 4 4 4 3 3 3 3 3 3 3 3 3 5 6 5 3 3 4 4 4 4 4 6 7 8 8 7 5
2 3 3 3 3 3 4 5 4 4 5 4 4 4 4 4 4 4 3 3 3 3 3 3 3 3 4 6 6 6 4 4 4 4 4 4 4 6 4 6 8 8 11
2 2 3 2 2 3 4 4 4 4 4 4 4 4 4 4 3 3 3 3 3 3 3 3 3 3 4 6 6 6 4 3 4 4 5 5 5 5 5 4 5 5 6
2 2 2 2 3 3 4 5 4 4 4 4 4 4 4 4 3 3 3 3 3 2 2 3 3 3 4 6 7 6 3 3 4 4 5 5 5 7 8 5 5 6 6
3 3 3 3 3 3 4 5 4 3 3 3 3 3 3 3 3 3 3 2 2 2 2 2 3 4 4 6 7 7 3 3 3 3 4 7 8 9 9 5 5 6 6
4 4 4 4 3 3 4 4 3 2 2 3 3 2 2 3 3 3 2 2 2 2 2 2 3 3 4 6 8 8 3 4 3 4 4 4 8 9 9 8 5 8 7
5 4 4 4 3 3 4 4 2 2 2 3 2 2 2 2 2 2 2 2 2 2 2 2 3 3 3 5 6 9 8 6 4 4 4 4 7 9 9 7 8 10 8
4 4 4 4 3 4 4 3 2 2 2 2 2 1 1 1 1 2 2 1 2 2 2 2 3 3 2 4 7 9 9 9 5 4 6 8 9 8 7 9 10 8 4
5 5 4 4 3 3 3 2 2 2 2 2 1 1 1 1 1 1 1 2 2 2 3 3 3 3 3 3 3 3 4 5 5 4 6 8 8 6 6 6 5 4 4
4 4 4 3 3 3 3 2 2 2 2 1 1 1 0 0 0 1 1 2 2 3 4 3 3 4 4 5 7 5 3 3 4 3 2 3 3 3 3 3 4 3 3
4 4 4 4 3 3 3 3 2 2 1 1 1 0 0 0 0 1 1 2 3 5 6 7 6 5 7 8 8 8 8 8 8 5 4 4 4 4 4 4 4 4 4
Wind_Direction
182 168 165 162 155 154 152 150 147 145 137 135 134 132 132 123 116 121 121 116 114 109 112 115 108 105 111 115 106 108 105 87 91 80 53 15 50 86 63 61 73 69 65
173 170 164 159 158 160 158 155 152 149 147 144 137 132 131 123 119 115 113 117 115 111 116 118 122 121 119 114 107 109 110 106 101 112 115 66 0 354 27 70 84 71 51
177 176 170 160 157 162 164 161 155 153 148 139 127 118 107 103 103 113 122 124 121 118 111 114 118 120 124 130 122 121 122 144 158 84 123 136 183 332 337 54 81 80 50
172 171 167 161 162 166 159 154 155 153 148 142 139 142 147 146 149 140 139 130 125 122 116 116 118 125 119 125 133 124 130 132 152 38 42 107 137 143 269 334 22 54 37
169 166 166 161 157 156 156 154 149 150 149 146 145 144 146 138 130 131 138 134 127 124 123 123 119 116 113 121 127 126 126 137 144 138 113 62 52 122 151 233 295 341 318
166 162 161 153 150 150 152 152 152 154 153 148 148 147 147 143 140 146 152 146 136 126 132 130 124 120 117 122 130 127 130 137 133 130 135 139 142 187 154 203 227 271 287
165 160 158 156 157 156 157 156 155 154 154 152 151 150 147 145 150 155 156 150 146 146 155 146 145 144 137 134 131 123 133 140 141 153 159 146 174 175 147 172 233 262 279
157 159 159 157 159 161 163 163 163 157 155 155 149 146 145 146 149 154 155 153 154 155 151 145 147 143 140 142 139 135 141 133 149 167 151 138 159 131 167 182 188 273 276
154 155 153 153 155 161 165 167 163 156 156 157 146 145 145 145 148 154 149 144 145 143 143 146 147 145 143 144 143 147 159 157 169 177 173 173 179 163 207 194 182 188 247
143 146 147 149 152 156 154 154 156 155 154 155 153 152 153 151 149 148 146 144 145 144 147 153 158 156 155 152 147 153 168 164 174 177 180 190 198 181 189 213 233 220 218
145 141 140 140 141 141 144 146 148 146 148 151 152 152 154 153 150 152 152 152 153 157 161 166 167 167 168 164 162 171 181 181 187 198 196 200 199 190 205 222 234 244 230
129 131 132 132 133 138 141 145 145 147 150 149 149 149 150 146 145 152 155 153 158 165 169 170 173 176 178 178 180 187 190 186 192 206 205 205 202 203 211 217 229 239 237
119 119 121 132 139 141 144 146 145 144 143 142 144 144 146 145 148 150 151 153 158 165 169 170 178 184 183 186 190 190 192 197 200 203 214 214 200 220 224 223 230 240 250
125 124 129 138 142 140 140 140 139 137 136 137 142 149 152 153 154 153 155 164 166 169 176 180 185 190 190 191 190 187 194 203 206 207 216 220 212 217 219 231 237 240 245
131 136 143 144 143 138 135 133 134 135 135 138 144 150 146 142 144 150 159 167 169 172 177 180 184 185 191 195 189 193 201 205 212 219 224 224 225 228 229 231 230 232 241
141 140 139 137 142 144 139 135 138 139 138 143 148 145 142 143 150 156 161 167 171 172 174 187 189 195 210 205 210 210 204 207 213 225 231 231 234 240 246 248 247 240 239
142 144 142 140 140 146 142 140 143 138 141 144 144 145 145 151 161 162 164 177 180 174 181 193 194 203 210 218 223 224 217 214 222 226 229 240 237 246 241 252 260 261 260
115 114 119 115 118 125 125 124 127 135 141 144 146 148 150 158 164 164 174 186 181 180 187 197 200 207 220 226 232 233 230 225 230 229 227 230 235 235 239 241 249 254 257
91 90 97 109 112 117 123 119 121 126 132 138 143 150 154 160 165 171 181 185 178 186 194 199 202 212 229 233 238 242 225 232 241 240 235 234 233 241 246 246 247 258 264
75 73 80 91 96 101 111 114 117 124 138 139 136 144 154 164 175 179 182 181 179 188 197 211 215 219 230 237 244 245 226 234 246 250 244 243 243 245 247 242 237 250 260
71 65 73 81 83 86 99 106 111 125 131 125 130 145 159 171 178 174 171 169 175 186 208 226 238 233 234 241 245 247 238 226 238 247 248 246 249 251 252 252 244 252 263
69 65 71 68 62 75 94 98 101 104 106 121 132 147 163 171 160 160 164 169 174 191 222 233 251 249 242 244 245 247 250 249 242 245 246 245 253 256 258 259 257 265 273
66 65 75 68 57 64 85 98 97 99 105 113 122 140 149 157 161 167 172 181 192 202 225 230 242 252 248 242 248 250 253 255 253 247 252 258 259 261 262 258 260 265 256
66 66 67 68 59 55 67 86 86 88 98 107 114 130 136 150 159 183 190 196 210 217 229 234 245 258 258 248 239 238 245 252 258 257 257 263 263 260 255 257 256 245 239
61 62 65 66 59 51 49 54 57 74 81 91 94 74 86 187 209 241 242 238 239 231 240 240 237 246 254 251 251 254 245 238 242 258 256 250 250 245 246 248 246 240 240
55 53 49 51 47 43 39 38 40 58 72 64 51 33 338 274 249 264 315 312 275 275 270 266 264 266 264 266 264 266 266 266 261 266 244 242 239 239 242 244 246 240 237